sat.trackr.live / text

‹ back to catalog

IRIDIUM 118

NORAD 42807 · 2017-039E

PAYLOAD ACTIVE UNKNOWN

§ Identity

Operator
Country
US
Launch date
2017-06-25
Launch site
AFWTR
Launch vehicle
Mass (kg)
RCS (m²)

Purposes: comms

External: N2YO · Heavens-Above · Gunter

§ Orbital elements

Epoch: 2026-05-25T01:56:06.934848Z

Period
100.40 min
Inclination
86.3985°
Eccentricity
0.0002233
Mean motion
14.34217856 rev/d
Perigee alt
776.1 km
Apogee alt
779.3 km
Semi-major
7,155.8 km
B*
8.5441e-6
RAAN
3.2957°
Arg perigee
86.7802°
Mean anomaly
273.3649°
Rev number
46,663

§ Raw data

IRIDIUM 1181 42807U 17039E   26145.08063582  .00000044  00000+0  85441-5 0  99952 42807  86.3985   3.2957 0002233  86.7802 273.3649 14.34217856466639

JSON: /api/v1/satellites/42807 · /tle

For live sub-satellite position, see the globe view (requires WebGL).

§ Visibility from observer

Set your observer location to see the next 7 days of passes ≥ 10°. The values pass through the URL so the page stays shareable.

No JS? Fill the form by hand. The geolocation button needs JavaScript.